Home > Weather > Regina > Past weeks

Flag for Canada Past Weather in Regina, Saskatchewan, Canada — Yesterday and Last 2 Weeks

Now
59 °F

Passing clouds.


Feels Like: 59 °F
Forecast: 54 / 77 °F
Wind: No wind

Location: Regina Weather Station

Current Time: Jul 26, 2016 at 8:23:03 AM

Latest Report: Jul 26, 2016 at 7:00 AM


Visibility: 15 mi

Pressure: 30.11 "Hg (28.11 "Hg at 577m altitude)

Humidity: 94%

Dew Point: 57 °F

Location of ReginaLocation

Past Weather in Regina — Graph

°F

Regina Temperature Yesterday

Maximum temperature yesterday: 84 °F (at 3:00 PM)
Minimum temperature yesterday: 55 °F (at 4:00 AM)
Average temperature yesterday: 69 °F

High & Low Weather Summary for the Past Weeks

 TemperatureHumidityPressure
High86 °F (Jul 19, 3:00 PM)100% (Jul 11, 8:00 AM)30.18 "Hg (Jul 11, 8:00 AM)
Low48 °F (Jul 14, 4:00 AM)28% (Jul 22, 2:00 PM)29.39 "Hg (Jul 11, 11:00 PM)
Average66 °F76%29.91 "Hg
* Reported Jul 11 7:00 AM — Jul 26 7:00 AM, Regina, Weather by CustomWeather, © 2016

Note: Actual official high and low records may vary slightly from our data, if they occured in-between our weather recording intervals... More about our weather records

Advertising

Regina Weather History for the Previous 24 Hours

Scroll right to see more
 ConditionsComfort  
Time TempWeatherWind HumidityBarometerVisibility
7:00 AM
Tue, Jul 26
59 °FPassing clouds.No wind94%30.11 "Hg15 mi
6:00 AM54 °FFog.2 mph94%30.10 "Hg15 mi
5:00 AM52 °FPassing clouds.No wind94%30.09 "Hg15 mi
4:00 AM54 °FClear.No wind94%30.09 "Hg15 mi
3:00 AM55 °FClear.2 mph94%30.09 "Hg15 mi
2:00 AM57 °FClear.2 mph94%30.10 "Hg15 mi
1:00 AM59 °FClear.3 mph94%30.08 "Hg15 mi
12:00 AM61 °FClear.6 mph83%30.07 "Hg15 mi
11:00 PM
Mon, Jul 25
63 °FClear.2 mph83%30.06 "Hg15 mi
10:00 PM64 °FPassing clouds.3 mph78%30.05 "Hg15 mi
9:00 PM70 °FClear.7 mph64%30.04 "Hg15 mi
8:00 PM73 °FPassing clouds.7 mph61%30.03 "Hg15 mi
7:00 PM77 °FPassing clouds.12 mph54%30.03 "Hg15 mi
6:00 PM79 °FPassing clouds.16 mph54%30.02 "Hg15 mi
5:00 PM81 °FScattered clouds.10 mph54%30.01 "Hg15 mi
4:00 PM82 °FScattered clouds.8 mph45%30.00 "Hg15 mi
3:00 PM84 °FScattered clouds.12 mph43%29.99 "Hg15 mi
2:00 PM81 °FPassing clouds.8 mph54%29.99 "Hg15 mi
1:00 PM81 °FPartly sunny.5 mph54%30.00 "Hg15 mi
12:00 PM79 °FPassing clouds.3 mph58%30.00 "Hg15 mi
11:00 AM75 °FPassing clouds.5 mph65%30.00 "Hg15 mi
10:00 AM73 °FPassing clouds.7 mph65%29.99 "Hg15 mi
9:00 AM70 °FPassing clouds.9 mph64%29.99 "Hg15 mi
8:00 AM66 °FPassing clouds.7 mph73%29.99 "Hg15 mi
Weather by CustomWeather, © 2016

See weather overviewHow to use our weather pages